Regional Weather Roundup
Issued by NWS Green Bay, WI

Home | Current Version | Previous Version | Graphics & Text | Print | Product List | Glossary Off
Versions: 1 2 3 4 5 6 7 8 9 10 11 12 13 14 15 16 17 18 19 20 21 22 23 24 25 26 27 28 29 30 31 32 33 34 35 36 37 38 39 40 41 42 43 44 45 46 47 48 49 50

000
ASUS43 KGRB 071711
RWRGRB

NORTH-CENTRAL AND NORTHEAST WISCONSIN REGIONAL WEATHER ROUNDUP
NATIONAL WEATHER SERVICE GREEN BAY WI
1100 AM CST SUN FEB 07 2016

WIZ005-009-010>012-018-019-071800-
NORTH CENTRAL WISCONSIN

CITY           SKY/WX    TMP DP  RH WIND       PRES   REMARKS
IRONWOOD       CLOUDY    34  30  86 SW12      29.46R
MANITOWISH WTR MIX PCPN  31  31  99 SW8       29.49S
ARBOR VITAE    CLOUDY    33  31  92 SW9       29.50S FOG
EAGLE RIVER    CLOUDY    32  30  94 SW9       29.50F FOG
LAND O LAKES   CLOUDY    32  30  94 S6        29.50F FOG
RHINELANDER    CLOUDY    32  28  85 SW12      29.53S
PHILLIPS       CLOUDY    32  29  90 SW9       29.51S
ANTIGO         CLOUDY    33  29  86 W10       29.56S
TOMAHAWK       CLOUDY    32  28  86 SW3       29.54S
MERRILL        CLOUDY    33  30  88 SW10      29.57S
$$

WIZ013-073-071800-
NORTHEAST WISCONSIN

CITY           SKY/WX    TMP DP  RH WIND       PRES   REMARKS
IRON MOUNTAIN  CLOUDY    32  29  88 S6        29.54F FOG
MARINETTE      PTSUNNY   39  28  65 SW12G17   29.59F
OCONTO         MOSUNNY   39  31  71 SW13G22   29.61S
$$

WIZ017-030-035>037-045-071800-
CENTRAL WISCONSIN

CITY           SKY/WX    TMP DP  RH WIND       PRES   REMARKS
MEDFORD        CLOUDY    33  30  88 SW12G17   29.55S
WAUSAU         CLOUDY    35  29  78 SW9G20    29.56F
MOSINEE        CLOUDY    34  30  86 SW16      29.60S
MARSHFIELD     CLOUDY    36  27  69 W14       29.58F
WISC RAPIDS    CLOUDY    39  28  64 W14G20    29.63S
STEVENS POINT  PTSUNNY   36  28  73 W14G21    29.61S
WAUPACA        SUNNY     43  31  62 SW12      29.62F
SHAWANO        MOSUNNY   41  31  67 SW9G17    29.61S
CLINTONVILLE   MOSUNNY   37  30  75 SW9       29.61S
WAUTOMA        SUNNY     42  30  62 SW12      29.64S
$$

WIZ038-039-048-051-071800-
FOX VALLEY

CITY           SKY/WX    TMP DP  RH WIND       PRES   REMARKS
NWS GREEN BAY  SUNNY     38  30  73 SW10G18   29.62F
APPLETON       MOSUNNY   39  28  65 SW12      29.61F
OSHKOSH        SUNNY     38  29  70 SW8G17    29.64F
FOND DU LAC    SUNNY     39  30  70 SW12      29.65F
$$

WIZ022-050-052-071800-
EAST CENTRAL WISCONSIN

CITY           SKY/WX    TMP DP  RH WIND       PRES   REMARKS
EPHRAIM        PTSUNNY   39  30  71 SW7       29.59F
STURGEON BAY   SUNNY     37  28  70 SW12      29.63F
MANITOWOC      SUNNY     40  30  67 SW13      29.65S
SHEBOYGAN      SUNNY     39  29  67 SW16      29.65F
$$

LMZ563-521-522-541>543-071800-
LAKESHORE

STATION/POSITION TIME  TEMP    WIND        PRES    VSBY  WAVE
                       AIR SEA DIR/SP/G                  HT/PER
                 (UTC) (F)     (DEG/KT/KT) (MB)    (MI)  (FT/S)
SHEBOYGAN LKSHOR 1700   40     230/ 15/ 18 1004.9F
KEWAUNEE LKSHORE 1600   37     210/  8/ 12 1003.2F
ALGOMA MARINA    1611          220/ 11/ 13   N/A
NORTHPORT PIER   1600   38     170/  3/ 10 1003.4F
CHAMBERS ISLAND  1600   36     180/  5/ 11 1003.0F
MENOMINEE LKSHOR 1600   37     190/ 11     1001.8F
$$



USA.gov is the U.S. government's official web portal to all federal, state and local government web resources and services.